Weather in Gornyy Balykley

Russia / Volgograd Oblast     49°33′05″N   45°04′02″E
temp.,
°C
wind,
m/s
gust,
m/s
humid.,
%
clouds,
%
prec.,
mm/h
press.,
hPa
HPBL,
m
27 july, tue
tue2700:00+20ne59525 0.0 1021144
03:00+19ne475777 0.0 1021110
06:00+19ne485854 0.0 1021157
09:00+23ne564317 0.0 1021426
12:00+25ne453311 0.0 10201105
15:00+26nne5633100 0.0 10191302
18:00+25ene3437100 0.0 1018437
21:00+23ese1145100 0.0 101811
28 july, wed
wed2800:00+23ne224497 0.0 101812
03:00+21wnw12509 0.0 101711
06:00+21nw224770 0.0 101744
09:00+24ene11422 0.0 1017409
12:00+26se11365 0.0 10161190
15:00+27ese123926 0.0 10151070
18:00+28ssw323610 0.0 10141124
21:00+25wsw33433 0.0 101416
29 july, thu
thu2900:00+22wsw11515 0.0 101411
03:00+23ssw224662 0.0 101418
06:00+23sw4650100 0.0 101398
09:00+27wsw6839100 0.0 1012348
12:00+30wsw68315 0.0 10111886
15:00+31sw682945 0.0 10101821
18:00+29wnw81238100 0.0 1010908
21:00+26wsw4744100 0.0 101085
30 july, fri
fri3000:00+24wsw45477 0.0 101046
03:00+24wsw464499 0.0 100982
06:00+24wsw375149 0.0 1010149
09:00+29wsw574311 0.0 1010784
12:00+31wsw673019 0.0 10091771
15:00+32sw563019 0.0 10082076
18:00+30wnw6941100 0.0 1008339
21:00+24wnw596098 0.1 1009184
31 july, sat
sat3100:00+22nne467299 0.0 1009106
03:00+21s227656 0.1 100921
06:00+23w236764 0.1 101069
09:00+27sw235147 0.1 1010531
12:00+30ssw243949 0.0 10091468
15:00+28sse344487 1.3 1008229
18:00+31s233916 1.1 1008114
21:00+28w12444 1.2 100818